[[{"header":{"parameterUnit":"m.s-1","parameterCategory":1,"la1":30.2991,"la2":30.254,"lo1":-89.0895,"lo2":-89.0444,"dy":0.0017,"dx":0.0017,"nx":28,"ny":28,"refTime":"2024-04-10T03:00:00:Z","depth":0,"parameterNumber":2,"parameterNumberName":"U-component_of_WINDS"},"data":[0,0,0,0,0,0,0,0,0,0,0,0,0,0,0,0,0,0,0,0,0,0,0,0,0,0,0,0,0,0,0,0,0,0,0,0,0,0,0,0,0,0,0,0,0,0,0,0,0,0,0,0,0,0,0,0,0,0,8.8724,8.8726,0,8.8919,8.8921,8.8923,8.8859,8.8855,8.8851,8.8847,8.9049,8.9058,8.9067,0,0,0,0,0,0,0,0,0,0,0,0,0,8.8298,8.8306,8.8723,8.8726,8.8728,8.8919,8.8921,8.8924,8.886,8.8855,8.885,8.8845,8.9046,8.9057,8.9068,0,0,0,0,0,0,0,0,0,0,0,0,0,8.8487,8.8309,8.8723,8.8719,8.8721,8.8918,8.8921,8.8925,8.8861,8.8855,8.8848,8.8843,8.9042,8.9056,8.907,8.9283,0,0,8.9112,8.9118,0,0,0,0,0,0,0,0,8.8477,8.8503,8.8717,8.872,8.8722,8.8858,8.8845,8.9045,8.8863,8.8808,8.8847,8.8839,8.8991,8.9009,8.9059,8.9292,8.9301,8.9114,8.9122,8.9128,8.9132,0,0,0,0,0,0,0,8.8464,8.8494,8.8801,8.8721,8.8724,8.8709,8.8729,8.8883,8.8933,8.8812,8.8808,8.8832,8.8991,8.9046,8.9064,8.9304,8.9113,8.9126,8.9134,8.914,8.9725,8.9731,0,0,0,0,0,0,8.8449,8.8484,8.8795,8.8807,8.8581,8.8722,8.8744,8.8821,8.8931,8.8941,8.8837,8.8828,8.9025,8.9047,8.907,8.933,8.9128,8.9141,8.9149,8.9718,8.9726,8.9734,0,0,0,0,0,0,8.844,8.8477,8.8787,8.8644,8.8682,8.8736,8.8823,8.8828,8.8883,8.895,8.8958,8.8884,8.9021,8.9051,8.9231,8.9336,8.9147,8.916,8.9709,8.972,8.973,8.9848,0,0,0,0,0,0,8.8428,8.8474,8.8555,8.8646,8.869,8.8944,8.8829,8.8837,8.8907,8.8897,8.8996,8.9006,8.9018,8.9211,8.9245,8.9351,8.9171,8.97,8.9714,8.9727,8.9835,8.9861,8.9884,0,0,0,0,0,8.8413,8.858,8.8559,8.8597,8.8792,8.895,8.8975,8.8985,8.8916,8.8998,8.9041,8.9003,8.9318,8.9229,8.9268,8.938,8.9694,8.971,8.9726,8.9824,8.9856,8.9883,0,0,0,0,0,0,8.85,8.8592,8.857,8.8771,8.8853,8.8938,8.9042,8.9018,8.9121,8.9108,8.9116,8.9139,8.9325,8.937,8.927,8.9593,8.9496,8.952,8.9557,8.9589,8.9613,8.9599,8.9183,0,0,0,0,0,8.8542,8.8661,8.8736,8.8907,8.8949,8.8989,8.9058,8.9058,8.9144,8.9178,8.9234,8.9319,8.9437,8.9515,8.9627,8.9841,8.9863,8.9937,8.9961,8.9981,9.0003,9.0122,9.0156,8.9787,8.9787,8.9786,0,0,8.8631,8.8696,8.8771,8.8926,8.8989,8.9114,8.9018,8.9154,8.9247,8.9199,8.9373,8.9417,8.9513,8.9711,8.9801,8.9755,9.011,9.0001,9.0017,9.0028,9.0142,9.0177,9.0208,8.9798,8.9796,8.9794,0,0,8.8858,8.8918,8.9069,8.9134,8.9232,8.9257,8.9294,8.9383,8.9411,8.9586,8.9553,8.9664,8.9867,8.9937,9.0,9.0255,9.0225,9.0291,9.042,9.0536,9.0565,9.0591,9.0685,9.0718,9.0312,9.0313,9.0313,0,8.8957,8.9143,8.9149,8.9289,8.9359,8.932,8.9474,8.9537,8.9666,8.9716,8.9661,8.9917,8.9978,9.0194,9.0257,9.0307,9.0351,9.0281,9.056,9.0586,9.0611,9.07,9.0735,9.032,9.0319,9.0319,9.0318,0,8.9261,8.9391,8.9501,8.9627,8.9709,8.9855,8.9884,8.9967,8.9961,8.9993,9.0173,9.0245,9.0372,9.0423,9.0418,9.064,9.0608,9.0557,9.0459,9.0653,9.0738,9.0772,9.0331,9.0328,9.0326,9.0324,0,0,8.9549,8.9677,8.9718,8.9776,8.9881,8.9982,9.0126,9.0251,9.0323,9.0413,9.0537,9.071,9.0664,9.0735,9.0737,9.0839,9.104,9.0776,9.0778,9.0824,9.1291,9.1331,9.137,9.102,9.1026,9.1032,9.1284,0,8.9787,9.0041,9.0051,9.0283,9.0405,9.037,9.0497,9.0576,9.061,9.0719,9.0756,9.088,9.0808,9.0851,9.095,9.0995,9.1134,9.0976,9.1137,9.1142,9.1116,9.1414,9.1456,9.1691,9.1317,9.1323,9.1327,0,9.0098,9.0199,9.0444,9.0533,9.0585,9.0698,9.0814,9.0918,9.1007,9.1025,9.1105,9.1094,9.1243,9.114,9.1347,9.124,9.1306,9.1338,9.1347,9.1364,9.1248,9.1442,9.1766,9.1802,9.1378,9.1374,9.137,0,9.0287,9.0484,9.0656,9.0706,9.0815,9.0896,9.0945,9.1028,9.1103,9.1204,9.1253,9.1371,9.1436,9.1528,9.155,9.1472,9.1759,9.1656,9.178,9.178,9.1843,9.1839,9.2185,9.1882,9.1882,9.1881,9.188,0,9.0553,9.0705,9.0743,9.0849,9.1019,9.1029,9.1197,9.124,9.1315,9.143,9.1407,9.1516,9.1536,9.165,9.1668,9.1839,9.1868,9.1888,9.1891,9.1891,9.1889,9.1936,9.1922,9.189,9.1888,9.1886,9.1885,0,9.0794,9.0825,9.1011,9.1099,9.1124,9.1246,9.1321,9.1424,9.1455,9.1601,9.1636,9.1686,9.1819,9.1849,9.2006,9.2018,9.2222,9.2208,9.2192,9.2192,9.2315,9.2304,9.2705,9.2759,9.2418,9.2421,9.2424,0,9.0963,9.1079,9.1179,9.1254,9.1307,9.1429,9.1505,9.152,9.1601,9.1713,9.1803,9.1933,9.2038,9.2252,9.2303,9.2424,9.2415,9.2547,9.2433,9.243,9.242,9.2414,9.2427,9.257,9.2573,9.2576,9.2578,0,9.1261,9.1271,9.1381,9.1499,9.1591,9.1684,9.1773,9.1836,9.1863,9.1956,9.2091,9.2173,9.2334,9.2465,9.2586,9.2637,9.2615,9.2614,9.2649,9.2652,9.2639,9.265,9.2254,9.2605,9.2602,9.26,9.2599,9.2598,9.1473,9.1575,9.1662,9.1787,9.1855,9.1939,9.2041,9.2085,9.2198,9.233,9.2332,9.2481,9.2569,9.273,9.2789,9.2906,9.2865,9.2916,9.293,9.2943,9.2955,9.2618,9.2928,9.2927,9.2927,9.2926,9.2925,0,9.1772,9.1826,9.1941,9.2066,9.2165,9.2132,9.2229,9.2314,9.2445,9.2529,9.2633,9.279,9.2916,9.2978,9.3103,9.3186,9.3178,9.3218,9.3214,9.3227,9.2983,9.2941,9.3222,9.3222,9.3222,9.3222,9.3222,9.3222,9.1939,9.2111,9.2132,9.2339,9.2392,9.2537,9.2596,9.2673,9.274,9.2917,9.3022,9.306,9.3136,9.3267,9.3382,9.3397,9.3446,9.3492,9.3502,9.3273,9.3243,9.3215,9.3175,9.3502,9.3502,9.3736,9.3738,9.374]},{"header":{"parameterUnit":"m.s-1","parameterCategory":1,"la1":30.2991,"la2":30.254,"lo1":-89.0895,"lo2":-89.0444,"dy":0.0017,"dx":0.0017,"nx":28,"ny":28,"refTime":"2024-04-10T03:00:00:Z","depth":0,"parameterNumber":3,"parameterNumberName":"V-component_of_WINDS"},"data":[0,0,0,0,0,0,0,0,0,0,0,0,0,0,0,0,0,0,0,0,0,0,0,0,0,0,0,0,0,0,0,0,0,0,0,0,0,0,0,0,0,0,0,0,0,0,0,0,0,0,0,0,0,0,0,0,0,0,-0.944,-0.9437,0,-0.9204,-0.9201,-0.9198,-0.9101,-0.9101,-0.9102,-0.9102,-0.885,-0.8843,-0.8836,0,0,0,0,0,0,0,0,0,0,0,0,0,-0.98,-0.9794,-0.944,-0.9437,-0.9434,-0.9204,-0.9201,-0.9197,-0.9101,-0.9101,-0.9102,-0.9103,-0.8853,-0.8844,-0.8835,0,0,0,0,0,0,0,0,0,0,0,0,0,-0.9611,-0.9792,-0.944,-0.9358,-0.9349,-0.9205,-0.9201,-0.9197,-0.9101,-0.9101,-0.9102,-0.9103,-0.8855,-0.8845,-0.8834,-0.8751,0,0,-0.8801,-0.8797,0,0,0,0,0,0,0,0,-0.9622,-0.9598,-0.9373,-0.9364,-0.9353,-0.9183,-0.9235,-0.9047,-0.91,-0.9194,-0.9102,-0.9103,-0.896,-0.894,-0.8894,-0.874,-0.8729,-0.88,-0.8794,-0.8789,-0.8786,0,0,0,0,0,0,0,-0.9635,-0.9608,-0.9346,-0.937,-0.9357,-0.9331,-0.9305,-0.9199,-0.9075,-0.9186,-0.9179,-0.9153,-0.8954,-0.8905,-0.8887,-0.8725,-0.8801,-0.8791,-0.8784,-0.878,-0.8493,-0.8491,0,0,0,0,0,0,-0.9663,-0.9619,-0.9354,-0.9339,-0.9493,-0.9324,-0.9295,-0.9236,-0.9076,-0.9053,-0.9152,-0.9149,-0.8923,-0.89,-0.8878,-0.8771,-0.8789,-0.8779,-0.8773,-0.8494,-0.8492,-0.8491,0,0,0,0,0,0,-0.9671,-0.964,-0.9363,-0.9477,-0.944,-0.9317,-0.9252,-0.9231,-0.9182,-0.905,-0.9027,-0.9125,-0.8922,-0.8893,-0.8785,-0.8761,-0.8774,-0.8764,-0.8495,-0.8493,-0.8492,-0.8557,0,0,0,0,0,0,-0.9682,-0.9644,-0.9613,-0.9477,-0.9434,-0.9276,-0.925,-0.9226,-0.9165,-0.9158,-0.9019,-0.8996,-0.8921,-0.8801,-0.8774,-0.8746,-0.8756,-0.8497,-0.8494,-0.8492,-0.8556,-0.8558,-0.8559,0,0,0,0,0,-0.9695,-0.9638,-0.9612,-0.958,-0.9393,-0.9275,-0.925,-0.9167,-0.9163,-0.913,-0.9046,-0.9,-0.8769,-0.8791,-0.8759,-0.8728,-0.8498,-0.8495,-0.8492,-0.8556,-0.8558,-0.8559,0,0,0,0,0,0,-0.9769,-0.9618,-0.9588,-0.9485,-0.9395,-0.9259,-0.9214,-0.9172,-0.9077,-0.9075,-0.8973,-0.8942,-0.8843,-0.8774,-0.8802,-0.8641,-0.863,-0.8621,-0.8689,-0.8689,-0.8691,-0.8708,-0.8747,0,0,0,0,0,-0.9775,-0.9694,-0.9565,-0.9487,-0.9444,-0.9338,-0.9283,-0.9228,-0.9128,-0.9088,-0.8996,-0.8898,-0.8803,-0.8742,-0.8648,-0.8547,-0.8515,-0.851,-0.8511,-0.8513,-0.8506,-0.8449,-0.8445,-0.8483,-0.8483,-0.8483,0,0,-0.9782,-0.969,-0.9645,-0.95,-0.9423,-0.934,-0.9305,-0.9218,-0.9155,-0.9073,-0.8966,-0.8896,-0.878,-0.8676,-0.8625,-0.8616,-0.8489,-0.851,-0.8512,-0.8503,-0.8446,-0.8442,-0.8439,-0.8481,-0.8481,-0.8481,0,0,-0.9755,-0.9678,-0.9605,-0.953,-0.9416,-0.9346,-0.9329,-0.9201,-0.9152,-0.9045,-0.8982,-0.8904,-0.8743,-0.8664,-0.8602,-0.855,-0.8505,-0.8522,-0.8528,-0.8473,-0.847,-0.8467,-0.8448,-0.8443,-0.8515,-0.8516,-0.8516,0,-0.9779,-0.9654,-0.9572,-0.949,-0.9428,-0.9355,-0.928,-0.921,-0.9069,-0.9027,-0.902,-0.8819,-0.8735,-0.8612,-0.86,-0.8553,-0.8529,-0.8536,-0.8478,-0.8474,-0.8469,-0.845,-0.8444,-0.8518,-0.8518,-0.8518,-0.8517,0,-0.9689,-0.9604,-0.9558,-0.9429,-0.9362,-0.9284,-0.9188,-0.913,-0.9082,-0.9013,-0.8904,-0.8803,-0.8687,-0.8654,-0.8604,-0.8524,-0.8522,-0.8498,-0.8484,-0.847,-0.8451,-0.8443,-0.8522,-0.8521,-0.8521,-0.852,0,0,-0.9698,-0.9529,-0.9513,-0.9455,-0.9325,-0.9256,-0.9174,-0.9066,-0.9018,-0.8924,-0.8852,-0.872,-0.8698,-0.8628,-0.8569,-0.8521,-0.8487,-0.8502,-0.8498,-0.8503,-0.8393,-0.8412,-0.8405,-0.8458,-0.8456,-0.8455,-0.8403,0,-0.9653,-0.9507,-0.9433,-0.9318,-0.9238,-0.917,-0.9099,-0.9011,-0.8945,-0.8865,-0.879,-0.8699,-0.8676,-0.8634,-0.8584,-0.8502,-0.8464,-0.8505,-0.8388,-0.8385,-0.8418,-0.8395,-0.8413,-0.837,-0.8395,-0.8394,-0.8393,0,-0.958,-0.9492,-0.9371,-0.9253,-0.9217,-0.9155,-0.905,-0.8976,-0.8875,-0.883,-0.8755,-0.8698,-0.8608,-0.8604,-0.8478,-0.8508,-0.8456,-0.8409,-0.8405,-0.839,-0.8387,-0.8378,-0.8353,-0.8347,-0.838,-0.8381,-0.8382,0,-0.96,-0.945,-0.9359,-0.931,-0.9171,-0.9129,-0.9068,-0.8968,-0.8908,-0.8816,-0.8776,-0.8674,-0.8618,-0.8539,-0.8456,-0.846,-0.8338,-0.8326,-0.8297,-0.8299,-0.8272,-0.8275,-0.8239,-0.8241,-0.8241,-0.8242,-0.8242,0,-0.9556,-0.9484,-0.9366,-0.9309,-0.9227,-0.9142,-0.9062,-0.8996,-0.8908,-0.8836,-0.877,-0.8703,-0.8598,-0.8518,-0.8452,-0.8358,-0.8333,-0.8293,-0.8276,-0.8298,-0.8304,-0.8262,-0.8262,-0.824,-0.824,-0.824,-0.8241,0,-0.9563,-0.9481,-0.9376,-0.9255,-0.9223,-0.9167,-0.9062,-0.9003,-0.8936,-0.8846,-0.882,-0.8713,-0.8615,-0.8526,-0.8394,-0.835,-0.8256,-0.8234,-0.8291,-0.8282,-0.8257,-0.8261,-0.8191,-0.8178,-0.8192,-0.8192,-0.8192,0,-0.954,-0.9484,-0.9358,-0.9307,-0.9249,-0.9167,-0.9107,-0.9022,-0.8962,-0.8845,-0.8801,-0.87,-0.8614,-0.8462,-0.837,-0.8271,-0.8246,-0.8229,-0.823,-0.8255,-0.8245,-0.8249,-0.8243,-0.8229,-0.823,-0.823,-0.823,0,-0.9509,-0.9472,-0.939,-0.9294,-0.9226,-0.9146,-0.9063,-0.9024,-0.8923,-0.8859,-0.8761,-0.8695,-0.8565,-0.8464,-0.8355,-0.829,-0.8243,-0.8231,-0.8219,-0.824,-0.8276,-0.8256,-0.8294,-0.8232,-0.8232,-0.8232,-0.8232,-0.8232,-0.9499,-0.9447,-0.9351,-0.9262,-0.9192,-0.9118,-0.9058,-0.8985,-0.8903,-0.8793,-0.8747,-0.8648,-0.8549,-0.8398,-0.8334,-0.8254,-0.8243,-0.8226,-0.8221,-0.8218,-0.8222,-0.8291,-0.8233,-0.8233,-0.8233,-0.8233,-0.8233,0,-0.9464,-0.94,-0.932,-0.9209,-0.9139,-0.9106,-0.9013,-0.8956,-0.8871,-0.8785,-0.8704,-0.8592,-0.8496,-0.8399,-0.8298,-0.8252,-0.8228,-0.8228,-0.823,-0.8216,-0.8237,-0.8258,-0.825,-0.825,-0.825,-0.825,-0.825,-0.825,-0.9437,-0.9348,-0.9301,-0.9176,-0.9111,-0.9017,-0.8967,-0.8897,-0.8829,-0.8708,-0.863,-0.8569,-0.8478,-0.837,-0.828,-0.8254,-0.8219,-0.8225,-0.8193,-0.8215,-0.8214,-0.8213,-0.8232,-0.8219,-0.8219,-0.8178,-0.8178,-0.8178]}]]